| time (UTC) | temp F | wind direction | speed MPH | gust MPH | rain 1hr in | rain 24hr in | rain mn in | humidity % | barometer mb |
| 20260904030106 | 68 | 355 | 0.0 | 7.0 | 0.00 | 2.02 | 2.02 | 93 | 1014.0 |
| 20260904024601 | 68 | 22 | 3.0 | 8.0 | 0.00 | 2.02 | 2.02 | 93 | 1014.0 |
| 20260904023103 | 68 | 355 | 3.0 | 6.0 | 0.00 | 2.02 | 2.02 | 92 | 1014.1 |
| 20260904021616 | 68 | 20 | 1.0 | 3.0 | 0.01 | 2.02 | 2.02 | 92 | 1014.2 |
| 20260904020106 | 69 | 360 | 1.0 | 4.0 | 0.05 | 2.02 | 2.02 | 92 | 1014.0 |
| 20260904014608 | 69 | 46 | 0.0 | 2.0 | 0.11 | 2.02 | 2.02 | 92 | 1014.1 |
| 20260904013125 | 69 | 51 | 0.0 | 4.0 | 0.19 | 2.02 | 2.02 | 92 | 1014.4 |
| 20260904011645 | 69 | 30 | 1.0 | 4.0 | 0.26 | 2.01 | 2.01 | 91 | 1015.2 |
| 20260904010106 | 69 | 0 | 0.0 | 1.0 | 0.27 | 1.97 | 1.97 | 91 | 1016.5 |
| 20260904004604 | 70 | 360 | 0.0 | 1.0 | 0.48 | 1.91 | 1.91 | 91 | 1017.4 |
| 20260904003104 | 70 | 0 | 0.0 | 1.0 | 0.42 | 1.83 | 1.83 | 90 | 1017.4 |
| 20260904001603 | 70 | 0 | 0.0 | 3.0 | 0.34 | 1.75 | 1.75 | 91 | 1017.5 |
| 20260904000105 | 70 | 0 | 0.0 | 7.0 | 0.29 | 1.70 | 1.70 | 90 | 1017.4 |
| 20260903234604 | 69 | 0 | 0.0 | 4.0 | 0.02 | 1.43 | 1.43 | 90 | 1016.1 |
| 20260903233107 | 69 | 360 | 2.0 | 6.0 | 0.00 | 1.41 | 1.41 | 90 | 1015.0 |
| 20260903231606 | 70 | 0 | 0.0 | 4.0 | 0.00 | 1.41 | 1.41 | 90 | 1014.8 |
| 20260903230111 | 70 | 99 | 0.0 | 8.0 | 0.00 | 1.41 | 1.41 | 89 | 1015.2 |
| 20260903224614 | 70 | 355 | 0.0 | 3.0 | 0.00 | 1.41 | 1.41 | 88 | 1014.7 |
| 20260903223103 | 70 | 0 | 0.0 | 1.0 | 0.11 | 1.41 | 1.41 | 88 | 1014.7 |
| 20260903221605 | 70 | 103 | 1.0 | 4.0 | 1.00 | 1.41 | 1.41 | 88 | 1014.8 |
| 20260903220105 | 71 | 0 | 0.0 | 3.0 | 1.00 | 1.41 | 1.41 | 88 | 1014.7 |
| 20260903214610 | 71 | 5 | 2.0 | 4.0 | 1.00 | 1.41 | 1.41 | 87 | 1014.8 |
| 20260903213108 | 73 | 136 | 2.0 | 17.0 | 0.88 | 1.29 | 1.29 | 84 | 1016.5 |
| 20260903211607 | 79 | 104 | 1.0 | 6.0 | 0.00 | 0.41 | 0.41 | 84 | 1015.6 |
| 20260903210142 | 80 | 0 | 0.0 | 1.0 | 0.00 | 0.41 | 0.41 | 82 | 1013.2 |
| 20260903204607 | 81 | 0 | 0.0 | 1.0 | 0.00 | 0.41 | 0.41 | 81 | 1013.6 |
| 20260903203103 | 83 | 0 | 0.0 | 1.0 | 0.00 | 0.41 | 0.41 | 79 | 1013.8 |
| 20260903201606 | 84 | 0 | 0.0 | 2.0 | 0.00 | 0.41 | 0.41 | 76 | 1013.3 |
| 20260903200118 | 85 | 334 | 1.0 | 5.0 | 0.00 | 0.41 | 0.41 | 73 | 1013.4 |
| 20260903194601 | 86 | 351 | 2.0 | 8.0 | 0.00 | 0.41 | 0.41 | 73 | 1013.6 |
| 20260903193106 | 85 | 38 | 4.0 | 9.0 | 0.00 | 0.41 | 0.41 | 74 | 1013.7 |
| 20260903191606 | 85 | 350 | 2.0 | 9.0 | 0.00 | 0.41 | 0.41 | 74 | 1014.3 |
| 20260903190106 | 85 | 355 | 4.0 | 11.0 | 0.00 | 0.41 | 0.41 | 75 | 1014.5 |
| 20260903184604 | 84 | 257 | 3.0 | 8.0 | 0.00 | 0.41 | 0.41 | 75 | 1014.6 |
| 20260903183127 | 84 | 0 | 1.0 | 9.0 | 0.00 | 0.41 | 0.41 | 75 | 1014.6 |
| 20260903181608 | 83 | 327 | 3.0 | 9.0 | 0.00 | 0.41 | 0.41 | 76 | 1014.7 |
| 20260903174607 | 84 | 347 | 2.0 | 8.0 | 0.00 | 0.41 | 0.41 | 75 | 1015.1 |
| 20260903173109 | 83 | 15 | 1.0 | 9.0 | 0.00 | 0.41 | 0.41 | 76 | 1015.1 |
| 20260903171613 | 83 | 34 | 2.0 | 6.0 | 0.00 | 0.41 | 0.41 | 77 | 1015.2 |
| 20260903170105 | 82 | 338 | 1.0 | 8.0 | 0.00 | 0.41 | 0.41 | 76 | 1015.3 |
| 20260903164606 | 82 | 327 | 2.0 | 8.0 | 0.00 | 0.41 | 0.41 | 78 | 1015.3 |
| 20260903163107 | 81 | 71 | 1.0 | 6.0 | 0.00 | 0.41 | 0.41 | 78 | 1015.4 |
| 20260903161600 | 80 | 46 | 2.0 | 8.0 | 0.00 | 0.41 | 0.41 | 81 | 1015.5 |
| 20260903160104 | 79 | 360 | 2.0 | 7.0 | 0.00 | 0.41 | 0.41 | 81 | 1015.6 |
| 20260903154607 | 78 | 202 | 1.0 | 4.0 | 0.00 | 0.41 | 0.41 | 84 | 1015.8 |
| 20260903153109 | 76 | 24 | 1.0 | 4.0 | 0.00 | 0.41 | 0.41 | 85 | 1016.1 |
| 20260903151611 | 75 | 57 | 2.0 | 6.0 | 0.00 | 0.41 | 0.41 | 86 | 1016.2 |
| 20260903150109 | 74 | 16 | 2.0 | 8.0 | 0.00 | 0.41 | 0.41 | 88 | 1016.5 |
| 20260903144604 | 73 | 360 | 2.0 | 8.0 | 0.01 | 0.41 | 0.41 | 90 | 1016.3 |
| 20260903143107 | 71 | 0 | 1.0 | 3.0 | 0.04 | 0.41 | 0.41 | 92 | 1016.2 |
| 20260903141604 | 70 | 316 | 0.0 | 3.0 | 0.04 | 0.41 | 0.41 | 94 | 1016.1 |
| 20260903140114 | 67 | 0 | 1.0 | 5.0 | 0.04 | 0.41 | 0.41 | 91 | 1015.8 |
| 20260903134603 | 68 | 229 | 2.0 | 14.0 | 0.04 | 0.40 | 0.40 | 91 | 1016.5 |
| 20260903133118 | 68 | 19 | 2.0 | 8.0 | 0.01 | 0.37 | 0.37 | 92 | 1017.1 |
| 20260903131611 | 68 | 0 | 0.0 | 3.0 | 0.03 | 0.37 | 0.37 | 93 | 1016.5 |
| 20260903130105 | 67 | 0 | 0.0 | 1.0 | 0.03 | 0.37 | 0.37 | 92 | 1016.2 |
| 20260903124615 | 67 | 0 | 0.0 | 2.0 | 0.02 | 0.36 | 0.36 | 91 | 1016.2 |
| 20260903123108 | 67 | 79 | 0.0 | 3.0 | 0.02 | 0.36 | 0.36 | 92 | 1016.9 |
| 20260903121602 | 0 | 0.0 | 0.0 | 0.00 | 0.34 | 0.34 | 1017.4 | ||
| 20260903120106 | 67 | 39 | 0.0 | 2.0 | 0.14 | 0.31 | 0.31 | 91 | 1016.8 |
| 20260903114607 | 67 | 38 | 1.0 | 4.0 | 0.25 | 0.27 | 0.27 | 91 | 1016.6 |
| 20260903113106 | 67 | 91 | 0.0 | 1.0 | 0.24 | 0.26 | 0.26 | 90 | 1016.8 |
| 20260903111601 | 67 | 0 | 0.0 | 2.0 | 0.20 | 0.22 | 0.22 | 90 | 1017.2 |
| 20260903104603 | 67 | 164 | 2.0 | 12.0 | 0.00 | 0.01 | 0.01 | 90 | 1017.5 |
| 20260903103105 | 67 | 337 | 2.0 | 4.0 | 0.00 | 0.01 | 0.01 | 90 | 1015.8 |
| 20260903101605 | 67 | 16 | 1.0 | 4.0 | 0.00 | 0.01 | 0.01 | 90 | 1015.1 |
| 20260903100106 | 67 | 5 | 1.0 | 3.0 | 0.00 | 0.01 | 0.01 | 89 | 1015.2 |
| 20260903094655 | 67 | 5 | 2.0 | 3.0 | 0.00 | 0.01 | 0.01 | 90 | 1015.1 |
| 20260903093105 | 67 | 360 | 1.0 | 3.0 | 0.00 | 0.01 | 0.01 | 89 | 1015.1 |
| 20260903091606 | 67 | 0 | 0.0 | 3.0 | 0.00 | 0.01 | 0.01 | 88 | 1015.1 |
| 20260903090108 | 67 | 0 | 0.0 | 3.0 | 0.00 | 0.01 | 0.01 | 88 | 1015.1 |
| 20260903084559 | 68 | 0 | 0.0 | 5.0 | 0.00 | 0.01 | 0.01 | 88 | 1015.0 |
| 20260903083108 | 68 | 28 | 0.0 | 2.0 | 0.00 | 0.01 | 0.01 | 87 | 1015.2 |
| 20260903081559 | 68 | 0 | 0.0 | 1.0 | 0.01 | 0.01 | 0.01 | 87 | 1015.7 |
| 20260903080105 | 69 | 31 | 1.0 | 5.0 | 0.01 | 0.01 | 0.01 | 86 | 1015.7 |
| 20260903074611 | 70 | 15 | 0.0 | 2.0 | 0.01 | 0.01 | 0.01 | 86 | 1015.5 |
| 20260903073108 | 71 | 0 | 0.0 | 5.0 | 0.01 | 0.01 | 0.01 | 85 | 1015.7 |
| 20260903071604 | 71 | 154 | 1.0 | 5.0 | 0.00 | 0.00 | 0.00 | 85 | 1015.6 |
| 20260903070103 | 71 | 0 | 0.0 | 4.0 | 0.00 | 0.00 | 0.00 | 87 | 1015.1 |
| 20260903064609 | 72 | 0 | 0.0 | 4.0 | 0.00 | 0.00 | 0.00 | 90 | 1015.2 |
| 20260903063105 | 70 | 0 | 1.0 | 4.0 | 0.00 | 0.00 | 0.00 | 89 | 1015.3 |
| 20260903061602 | 70 | 0 | 0.0 | 0.0 | 0.00 | 0.00 | 0.00 | 86 | 1014.9 |
| 20260903060109 | 70 | 0 | 0.0 | 0.0 | 0.00 | 0.00 | 0.00 | 87 | 1014.6 |
| 20260903054623 | 71 | 0 | 0.0 | 1.0 | 0.00 | 0.00 | 0.00 | 88 | 1014.9 |
| 20260903053108 | 71 | 62 | 0.0 | 1.0 | 0.00 | 0.00 | 0.00 | 87 | 1015.0 |
| 20260903051559 | 71 | 0 | 0.0 | 1.0 | 0.00 | 0.00 | 0.00 | 87 | 1015.0 |
| 20260903044603 | 71 | 0 | 0.0 | 1.0 | 0.00 | 0.00 | 0.00 | 85 | 1015.0 |
| 20260903043100 | 72 | 62 | 0.0 | 1.0 | 0.00 | 0.00 | 0.00 | 84 | 1014.8 |
| 20260903041613 | 72 | 0 | 0.0 | 1.0 | 0.00 | 0.00 | 0.00 | 83 | 1014.5 |
| 20260903040126 | 73 | 0 | 0.0 | 1.0 | 0.00 | 0.00 | 0.00 | 82 | 1014.0 |
| 20260903034605 | 74 | 0 | 0.0 | 2.0 | 0.00 | 0.00 | 0.00 | 81 | 1013.8 |
| 20260903033102 | 75 | 0 | 0.0 | 2.0 | 0.00 | 0.00 | 0.00 | 80 | 1014.2 |
| 20260903031605 | 76 | 0 | 0.0 | 3.0 | 0.00 | 0.00 | 0.00 | 79 | 1014.6 |